Change the Weather History Date:

Monday, December 31, 2012

  Actual Average Record
Temperature  
Mean Temperature 29 °F -  
Max Temperature 33 °F 14 °F 37 °F (2000)
Min Temperature 25 °F -1 °F -37 °F (1948)
Degree Days  
Heating Degree Days 36 58  
Month to date heating degree days 1913 1720  
Since 1 July heating degree days 6128 5818  
Cooling Degree Days 0    
Month to date cooling degree days 0  
Year to date cooling degree days 0  
Moisture  
Dew Point 25 °F    
Average Humidity 0    
Maximum Humidity 0    
Minimum Humidity 0    
Precipitation  
Precipitation 0.08 in 0.04 in 0.67 in (1997)
Month to date precipitation 0.62 1.08  
Year to date precipitation 18.75 16.81  
Snow  
Snow 0.80 in 0.50 in 14.00 in (1997)
Month to date snowfall 14.7 14.5  
Since 1 July snowfall 17.3 31.8  
Snow Depth 15.00 in    
Sea Level Pressure  
Sea Level Pressure 29.33 in    
Wind  
Wind Speed 11 mph (ENE)    
Max Wind Speed 17 mph    
Max Gust Speed 22 mph    
Visibility 7 miles    
Events Snow    
T = Trace of Precipitation, MM = Missing Value Source: NWS Daily Summary

Daily Weather History Graph

Daily Weather History Graph

Search for Another Location

Airport or City:

Trip Planner

Search our weather history database for the weather conditions in past years. The results will help you decide how hot, cold, wet, or windy it might be!

Date:

Astronomy

Dec. 31, 2012 Rise Set
Actual Time 11:59 AM AKST 4:10 PM AKST
Civil Twilight 10:40 AM AKST 5:30 PM AKST
Nautical Twilight 9:31 AM AKST 6:39 PM AKST
Astronomical Twilight 8:30 AM AKST 7:40 PM AKST
Moon 9:44 PM AKST (12/31) 12:06 PM AKST (12/31)
Length of Visible Light 6h 49m
Length of Day
4h 10m
Waning Gibbous, 89% of the Moon is Illuminated
Dec 31
Waning Gibbous
Jan 4
Last Quarter
Jan 11
New
Jan 18
First Quarter
Jan 26
Full

Hourly Weather History & Observations

Time (AKST) Temp. Windchill Dew Point Humidity Pressure Visibility Wind Dir Wind Speed Gust Speed Precip Events Conditions
12:53 AM 26.1 °F 15.0 °F 18.0 °F 71% 29.09 in 10.0 mi North 12.7 mph - N/A   Overcast
1:53 AM 27.0 °F 17.3 °F 18.0 °F 69% 29.10 in 10.0 mi North 10.4 mph - N/A   Overcast
2:53 AM 27.0 °F 21.6 °F 19.0 °F 72% 29.12 in 10.0 mi North 4.6 mph - N/A   Overcast
3:53 AM 27.0 °F 18.7 °F 19.0 °F 72% 29.15 in 10.0 mi North 8.1 mph - N/A   Overcast
4:53 AM 28.9 °F 20.4 °F 19.9 °F 69% 29.17 in 5.0 mi North 9.2 mph - 0.00 in Snow Light Snow
5:53 AM 28.9 °F 17.3 °F 23.0 °F 78% 29.18 in 10.0 mi NNE 16.1 mph - 0.00 in   Overcast
6:53 AM 28.9 °F 18.6 °F 23.0 °F 78% 29.20 in 10.0 mi NNE 12.7 mph - N/A   Overcast
7:53 AM 28.9 °F 21.1 °F 23.0 °F 78% 29.22 in 10.0 mi NE 8.1 mph - N/A   Overcast
8:53 AM 28.0 °F 20.8 °F 26.1 °F 92% 29.25 in 10.0 mi NE 6.9 mph - 0.00 in Snow Light Snow
9:53 AM 28.9 °F 20.4 °F 26.1 °F 89% 29.28 in 6.0 mi ENE 9.2 mph - 0.00 in Snow Light Snow
10:53 AM 28.9 °F 19.2 °F 27.0 °F 92% 29.31 in 2.0 mi NE 11.5 mph - 0.00 in Snow Light Snow
11:12 AM 28.4 °F 18.5 °F 26.6 °F 93% 29.31 in 1.5 mi ENE 11.5 mph - 0.01 in Snow Light Snow
11:53 AM 28.9 °F 18.6 °F 28.0 °F 96% 29.34 in 1.5 mi ENE 12.7 mph - 0.02 in Snow Light Snow
12:53 PM 28.9 °F 17.7 °F 28.0 °F 96% 29.37 in 2.0 mi ENE 15.0 mph - 0.02 in Snow Light Snow
1:39 PM 28.4 °F 17.0 °F 28.4 °F 100% 29.38 in 1.0 mi East 15.0 mph - 0.01 in Snow Light Snow
1:53 PM 28.9 °F 18.2 °F 28.0 °F 96% 29.39 in 1.5 mi East 13.8 mph - 0.02 in Snow Light Snow
2:31 PM 28.4 °F 18.0 °F 28.4 °F 100% 29.39 in 2.0 mi East 12.7 mph - 0.00 in Snow Light Snow
2:53 PM 30.0 °F 20.5 °F 30.0 °F 100% 29.41 in 2.0 mi ESE 11.5 mph - 0.01 in Snow Light Snow
3:23 PM 28.4 °F 18.5 °F 28.4 °F 100% 29.42 in 4.0 mi SE 11.5 mph - 0.00 in Snow Light Snow
3:53 PM 28.9 °F 19.2 °F 28.0 °F 96% 29.43 in 4.0 mi ESE 11.5 mph - 0.01 in Snow Light Snow
4:53 PM 28.0 °F 18.1 °F 28.0 °F 100% 29.47 in 6.0 mi East 11.5 mph - 0.00 in   Overcast
5:53 PM 28.9 °F 19.2 °F 27.0 °F 92% 29.49 in 8.0 mi East 11.5 mph - 0.00 in   Overcast
6:53 PM 28.0 °F 18.6 °F 26.1 °F 92% 29.49 in 10.0 mi East 10.4 mph - N/A   Overcast
7:53 PM 30.0 °F 20.5 °F 27.0 °F 88% 29.49 in 10.0 mi East 11.5 mph - N/A   Overcast
8:53 PM 30.0 °F 20.0 °F 27.0 °F 88% 29.49 in 10.0 mi East 12.7 mph - N/A   Overcast
9:53 PM 29.8 °F 18.9 °F 26.6 °F 88% 29.49 in 10.0 mi ENE 15.0 mph - N/A   Overcast
10:53 PM 30.9 °F 21.2 °F 27.0 °F 85% 29.49 in 10.0 mi ENE 12.7 mph - N/A   Overcast
11:53 PM 32.0 °F 22.1 °F 26.1 °F 79% 29.49 in 10.0 mi NE 13.8 mph - N/A   Overcast